FW5697 Weather Reports


Display with metric or nautical units.
time (UTC)temp
F
wind
direction
speed
MPH
gust
MPH
rain 1hr
in
rain 24hr
in
rain mn
in
humidity
%
barometer
mb
20260504234533 73 0 0.0 0.0 0.00 0.00 0.00 46 1014.2
20260504233028 75 0 0.0 1.0 0.00 0.00 0.00 43 1014.1
20260504231531 75 182 0.0 2.0 0.00 0.00 0.00 41 1014.2
20260504230027 76 213 1.0 3.0 0.00 0.00 0.00 37 1014.1
20260504224528 77 228 2.0 5.0 0.00 0.00 0.00 35 1014.2
20260504223042 77 201 1.0 3.0 0.00 0.00 0.00 35 1014.1
20260504221531 76 0 1.0 3.0 0.00 0.00 0.00 37 1014.1
20260504220028 77 200 1.0 3.0 0.00 0.00 0.00 35 1014.0
20260504214531 78 238 2.0 7.0 0.00 0.00 0.00 33 1014.0
20260504213045 77 153 1.0 3.0 0.00 0.00 0.00 40 1014.0
20260504211534 78 0 0.0 3.0 0.00 0.00 0.00 36 1013.9
20260504210030 79 186 2.0 5.0 0.00 0.00 0.00 33 1014.1
20260504204541 78 96 0.0 4.0 0.00 0.00 0.00 37 1014.2
20260504203029 78 171 1.0 6.0 0.00 0.00 0.00 33 1014.4
20260504201529 79 189 1.0 5.0 0.00 0.00 0.00 34 1014.5
20260504200028 79 232 1.0 4.0 0.00 0.00 0.00 33 1014.7
20260504194530 79 215 1.0 5.0 0.00 0.00 0.00 35 1014.9
20260504193030 78 140 1.0 4.0 0.00 0.00 0.00 34 1015.0
20260504191529 77 151 1.0 6.0 0.00 0.00 0.00 34 1015.2
20260504190028 77 84 1.0 6.0 0.00 0.00 0.00 33 1015.5
20260504184531 77 218 1.0 4.0 0.00 0.00 0.00 36 1015.7
20260504183027 75 0 1.0 4.0 0.00 0.00 0.00 35 1015.9
20260504181531 75 0 2.0 4.0 0.00 0.00 0.00 34 1016.1
20260504180028 75 213 0.0 2.0 0.00 0.00 0.00 37 1016.2
20260504174528 74 190 1.0 6.0 0.00 0.00 0.00 37 1016.4
20260504173030 73 0 0.0 4.0 0.00 0.00 0.00 39 1016.5
20260504171530 73 31 1.0 6.0 0.00 0.00 0.00 39 1016.7
20260504081528 46 0 0.0 0.0 0.00 0.00 0.00 92 1017.5
20260504044541 50 0 0.0 0.0 0.00 0.00 0.00 86 1018.4
20260504043030 50 0 0.0 0.0 0.00 0.00 0.00 86 1018.4
20260504041530 50 0 0.0 0.0 0.00 0.00 0.00 85 1018.3
20260504040032 51 0 0.0 0.0 0.00 0.00 0.00 84 1018.3
20260504034530 51 0 0.0 0.0 0.00 0.00 0.00 84 1018.4
20260504033030 52 0 0.0 1.0 0.00 0.00 0.00 83 1018.4
20260504031531 52 0 0.0 1.0 0.00 0.00 0.00 81 1018.2
20260504030028 53 0 0.0 0.0 0.00 0.00 0.00 79 1018.2
20260504024530 54 0 0.0 0.0 0.00 0.00 0.00 79 1018.1
20260504023030 54 0 0.0 1.0 0.00 0.00 0.00 76 1017.8
20260504021529 55 0 0.0 0.0 0.00 0.00 0.00 75 1017.6
20260504020028 55 0 0.0 0.0 0.00 0.00 0.00 74 1017.4
20260504014528 56 0 0.0 3.0 0.00 0.00 0.00 71 1017.2
20260504013036 58 0 0.0 0.0 0.00 0.00 0.00 69 1017.1
20260504011528 59 0 0.0 0.0 0.00 0.00 0.00 66 1016.9
20260504010029 61 0 0.0 0.0 0.00 0.00 0.00 62 1016.8
20260504004528 62 0 0.0 0.0 0.00 0.00 0.00 54 1016.6
20260504003032 64 0 0.0 0.0 0.00 0.00 0.00 52 1016.4
20260504001530 65 0 0.0 0.0 0.00 0.00 0.00 46 1016.4
20260504000027 67 0 0.0 1.0 0.00 0.00 0.00 46 1016.4